Aérodrome :
LOGIN :

S'inscrire | Disclaimer

   EN    FR    IT 

 










Légende :    VFR   VFR Marginal   IFR   IFR Intensif   IFR Très Intensif
Visi : 
Plafond : 
>= 8 km
>= 3000ft
5 à 8 km
1000 à 3000 ft
1500m à 5 km
500 à 1000 ft
800 à 1500m
200 à 500 ft
< 800m
< 200 ft
Symboles :   Orages  Brouillard  Fortes neiges  Fortes précipitations  Vent > 20 kt
SIGMETs :   Divers  Orages  Givrage  Turbulence  Onde Orograph.  Cendres Volcan.







- Altitude de l'aérodrome : 2096 ft
- Code IATA : AUR
- Voir les cartes d'approche


LFLW - Aurillac

DERNIER METAR :
  • 210300Z AUTO 31003KT 9999 FEW022 BKN040 01/00 Q1015

METARs EXPIRÉS :
  • 210230Z AUTO 00000KT 9000 SCT013 SCT035 OVC042 00/00 Q1015
  • 210200Z AUTO 29002KT 9999 FEW008 BKN042 01/00 Q1015
  • 210130Z AUTO 00000KT 9999 SCT039 BKN046 BKN084 01/00 Q1015
  • 210100Z AUTO 32005KT 9999 FEW007 SCT021 BKN037 01/01 Q1015
  • 210030Z AUTO 32006KT 9999 BKN007 OVC021 02/01 Q1015

Prévision TAF périmée.
Pas de NOTAMs connus pour ce terrain.



MET'MAP, la Météo Aéronautique d'un coup d'oeil ! - Copyright ORBIFLY Décembre 2007 - Disclaimer

ORBIFLY MET'MAP TEAM :

Programmation & Développement : Alexandra Zaïnal
Conception & Développement : Baudouin d'Aumeries
Co-Programmation & Développement : Marc-Olivier Méhu
Soutien technique & logistique : Manuel Goepfert

Contact : metmap@orbifly.com




SOURCES & CREDITS :

   NOAA